Notices

What's New in latest Release from April 7th, 2021:

- Updated Glossary, including Speed of Maximum Gust, and Total Hourly Precipitation

- Updated national and regional climate services offices contacts and prices information

- Addition of station inventory lists for 1981-2010, 1971-2000, and 1961-1990 Normals.

If you haven't already, please take our survey and provide feedback about our website: https://eccc.sondage-survey.ca/f/LanguageSelection.aspx?s=442ca660-fcf1-47c0-95a9-59707d6fd709

Hourly Data Report for November 07, 2003

TORONTO CITY
ONTARIO

43°40'00.000" N
79°24'00.000" W
112.50 m
6158355
71508
XTO

Download Data

Hourly Data (November 2003)
Hourly Data Report for November 7, 2003
TIME
LST
Temp Definition
°C
Dew Point Definition
°C
Rel Hum Definition
%
Precip. Amount Definition
mm

Wind Dir Definition
10's deg

Wind Spd Definition
km/h
Visibility Definition
km
Stn Press Definition
kPa
Hmdx Definition


Wind Chill Definition


Weather Definition


00:00 5.4 1.8 78   LegendMM LegendMM LegendMM 100.76     LegendNANA
01:00 4.0 1.0 81   LegendMM LegendMM LegendMM 100.75     LegendNANA
02:00 3.5 0.9 83   LegendMM LegendMM LegendMM 100.73     LegendNANA
03:00
04:00
05:00 3.3 -0.3 77   LegendMM LegendMM LegendMM 100.66     LegendNANA
06:00 2.3 -1.5 76   LegendMM LegendMM LegendMM 100.68     LegendNANA
07:00 1.7 -3.0 71   LegendMM LegendMM LegendMM 100.69     LegendNANA
08:00 1.9 -3.2 69   LegendMM LegendMM LegendMM 100.72     LegendNANA
09:00 2.9 -2.8 66   LegendMM LegendMM LegendMM 100.73     LegendNANA
10:00 4.5 -2.9 59   LegendMM LegendMM LegendMM 100.68     LegendNANA
11:00 5.9 -3.2 52   LegendMM LegendMM LegendMM 100.65     LegendNANA
12:00 6.8 -3.6 47   LegendMM LegendMM LegendMM 100.62     LegendNANA
13:00 7.6 -4.8 41   LegendMM LegendMM LegendMM 100.52     LegendNANA
14:00 7.0 -4.1 45   LegendMM LegendMM LegendMM 100.54     LegendNANA
15:00 6.2 -4.2 47   LegendMM LegendMM LegendMM 100.60     LegendNANA
16:00 5.3 -4.8 48   LegendMM LegendMM LegendMM 100.69     LegendNANA
17:00 4.6 -5.6 47   LegendMM LegendMM LegendMM 100.77     LegendNANA
18:00 4.0 -4.8 53   LegendMM LegendMM LegendMM 100.83     LegendNANA
19:00 2.9 -4.6 58   LegendMM LegendMM LegendMM 100.92     LegendNANA
20:00 2.0 -5.6 57   LegendMM LegendMM LegendMM 101.01     LegendNANA
21:00 1.3 -5.9 59   LegendMM LegendMM LegendMM 101.08     LegendNANA
22:00 1.1 -6.9 55   LegendMM LegendMM LegendMM 101.16     LegendNANA
23:00 0.6 -8.1 52   LegendMM LegendMM LegendMM 101.22     LegendNANA

Notes on Data Quality.

Legend

  • E = Estimated
  • M = Missing
  • NA = Not Available*
  • [empty] = Indicates an unobserved value
Date modified: